The Dalles, WA

6:51 PM PST on November 16, 2019 (GMT -0800)
Columbia Gorge Regional-The Dalles

Weather History for KDLS - September, 2019

Change the Weather History Date:

Sunday, September 29, 2019

  Actual Average Record
Temperature  
Mean Temperature 45 °F -  
Max Temperature 48 °F 77 °F 90 °F (1993)
Min Temperature 42 °F 45 °F 32 °F (1983)
Degree Days  
Heating Degree Days 20    
Moisture  
Dew Point 39 °F    
Average Humidity 81    
Maximum Humidity 89    
Minimum Humidity 64    
Precipitation  
Precipitation 0.28 in - - ()
Sea Level Pressure  
Sea Level Pressure 29.95 in    
Wind  
Wind Speed 3 mph (West)    
Max Wind Speed 7 mph    
Max Gust Speed -    
Visibility 9 miles    
Events Rain    
Averages and records for this station are not official NWS values.
T = Trace of Precipitation, MM = Missing Value Source: NWS Daily Summary

Daily Weather History Graph

Daily Weather History Graph

Search for Another Location

Airport or City:

Astronomy

Sep. 29, 2019 Rise Set
Actual Time 7:00 AM PDT 6:48 PM PDT
Civil Twilight 6:30 AM PDT 7:18 PM PDT
Nautical Twilight 5:56 AM PDT 7:52 PM PDT
Astronomical Twilight 5:20 AM PDT 8:27 PM PDT
Moon 7:57 AM PDT (9/29) 7:49 PM PDT (9/29)
Length of Visible Light 12h 47m
Length of Day
11h 48m
New Moon, 2% of the Moon is Illuminated
Sep 29
New Moon
Oct 5
First Quarter
Oct 13
Full
Oct 21
Last Quarter
Oct 27
New

Hourly Weather History & Observations

Time (PDT) Temp. Windchill Dew Point Humidity Pressure Visibility Wind Dir Wind Speed Gust Speed Precip Events Conditions
12:53 AM 46.0 °F 44.8 °F 41.0 °F 83% 29.88 in 10.0 mi ENE 3.5 mph - N/A   Overcast
1:53 AM 46.0 °F - 39.0 °F 76% 29.89 in 10.0 mi Calm Calm - N/A   Overcast
2:53 AM 46.0 °F - 39.9 °F 79% 29.88 in 10.0 mi Calm Calm - 0.00 in Rain Light Rain
3:44 AM 45.0 °F 41.8 °F 39.0 °F 80% 29.88 in 10.0 mi East 5.8 mph - 0.02 in Rain Light Rain
3:53 AM 45.0 °F 41.2 °F 39.0 °F 80% 29.88 in 9.0 mi ENE 6.9 mph - 0.02 in Rain Light Rain
4:53 AM 43.0 °F 38.8 °F 39.0 °F 86% 29.88 in 9.0 mi ENE 6.9 mph - 0.04 in Rain Light Rain
5:10 AM 43.0 °F 40.3 °F 39.0 °F 86% 29.88 in 7.0 mi NE 4.6 mph - 0.02 in Rain Light Rain
5:36 AM 43.0 °F - 39.9 °F 89% 29.89 in 10.0 mi Calm Calm - 0.03 in Rain Light Rain
5:53 AM 44.1 °F - 39.0 °F 82% 29.89 in 10.0 mi Calm Calm - 0.04 in Rain Light Rain
6:53 AM 43.0 °F 41.3 °F 39.9 °F 89% 29.91 in 8.0 mi NNW 3.5 mph - 0.03 in Rain Light Rain
7:53 AM 42.1 °F 40.2 °F 39.0 °F 89% 29.93 in 6.0 mi NW 3.5 mph - 0.07 in Rain Light Rain
8:18 AM 42.1 °F 39.2 °F 39.0 °F 89% 29.92 in 7.0 mi West 4.6 mph - 0.01 in Rain Light Rain
8:53 AM 42.1 °F 39.2 °F 39.0 °F 89% 29.94 in 9.0 mi West 4.6 mph - 0.03 in Rain Light Rain
9:43 AM 43.0 °F - 37.9 °F 82% 29.95 in 8.0 mi Calm Calm - 0.01 in Rain Light Rain
9:53 AM 43.0 °F - 37.0 °F 80% 29.95 in 10.0 mi Calm Calm - 0.01 in   Overcast
10:24 AM 43.0 °F - 37.0 °F 80% 29.95 in 10.0 mi Calm Calm - 0.00 in   Overcast
10:53 AM 43.0 °F - 37.9 °F 82% 29.96 in 10.0 mi Calm Calm - 0.01 in   Overcast
11:53 AM 45.0 °F 42.6 °F 39.0 °F 80% 29.96 in 10.0 mi West 4.6 mph - N/A   Overcast
12:53 PM 46.9 °F - 37.9 °F 71% 29.96 in 10.0 mi SW 3.5 mph - N/A   Overcast
1:53 PM 48.0 °F - 39.0 °F 71% 29.95 in 10.0 mi Calm Calm - N/A   Overcast
2:53 PM 48.0 °F - 37.9 °F 68% 29.95 in 10.0 mi Variable 3.5 mph - N/A   Overcast
3:53 PM 48.9 °F - 37.0 °F 64% 29.95 in 10.0 mi WNW 4.6 mph - N/A   Overcast
4:53 PM 48.0 °F - 37.9 °F 68% 29.97 in 10.0 mi West 5.8 mph - N/A   Overcast
5:53 PM 46.9 °F - 39.9 °F 77% 29.98 in 10.0 mi NW 5.8 mph - 0.00 in   Overcast
6:53 PM 46.9 °F - 39.0 °F 74% 29.99 in 10.0 mi Calm Calm - N/A   Overcast
7:27 PM 44.1 °F 40.8 °F 39.0 °F 82% 30.00 in 4.0 mi SSE 5.8 mph - 0.02 in Rain Light Rain
7:43 PM 44.1 °F 40.8 °F 39.9 °F 85% 30.01 in 10.0 mi SSE 5.8 mph - 0.02 in   Overcast
7:53 PM 44.1 °F 41.5 °F 39.9 °F 85% 30.01 in 10.0 mi SSW 4.6 mph - 0.02 in   Overcast
8:53 PM 44.1 °F 42.5 °F 39.9 °F 85% 30.03 in 10.0 mi NW 3.5 mph - N/A   Overcast
9:53 PM 44.1 °F 42.5 °F 39.0 °F 82% 30.03 in 10.0 mi SW 3.5 mph - N/A   Overcast
10:10 PM 44.1 °F 40.8 °F 39.0 °F 82% 30.02 in 10.0 mi SW 5.8 mph - N/A   Overcast
10:43 PM 44.1 °F 42.5 °F 39.0 °F 82% 30.02 in 10.0 mi SW 3.5 mph - N/A   Overcast
10:53 PM 44.1 °F 42.5 °F 39.0 °F 82% 30.03 in 8.0 mi SW 3.5 mph - 0.00 in Rain Light Rain
11:53 PM 44.1 °F 41.5 °F 39.9 °F 85% 30.03 in 10.0 mi SW 4.6 mph - 0.01 in   Overcast